Time,TemperatureF,DewpointF,PressureIn,WindDirection,WindDirectionDegrees,WindSpeedMPH,WindSpeedGustMPH,Humidity,HourlyPrecipIn,Conditions,Clouds,dailyrainin,SoftwareType,DateUTC
2013-04-17 06:26:00,52.7,-7.3,30.06,North,8,8.1,8.7,8,0.00,,,0.00,WUHU216WMR968SP,2013-04-17 10:26:00,
2013-04-17 06:27:00,52.7,-7.3,30.06,North,8,10.5,11.0,8,0.00,,,0.00,WUHU216WMR968SP,2013-04-17 10:27:00,
2013-04-17 06:32:00,52.7,-7.3,30.06,West,261,6.3,13.2,8,0.00,,,0.00,WUHU216WMR968SP,2013-04-17 10:32:00,
2013-04-17 06:37:00,52.3,-7.6,30.06,North,0,8.3,13.2,8,0.00,,,0.00,WUHU216WMR968SP,2013-04-17 10:37:00,
2013-04-17 06:42:00,52.7,-7.3,30.06,North,1,9.6,13.2,8,0.00,,,0.00,WUHU216WMR968SP,2013-04-17 10:42:00,
2013-04-17 06:47:00,52.9,-7.2,30.06,NNW,327,6.3,11.0,8,0.00,,,0.00,WUHU216WMR968SP,2013-04-17 10:47:00,
2013-04-17 06:52:00,53.1,-7.0,30.06,NW,323,6.7,11.0,8,0.00,,,0.00,WUHU216WMR968SP,2013-04-17 10:52:00,
2013-04-17 06:57:00,53.2,-6.9,30.06,North,0,7.6,15.0,8,0.00,,,0.00,WUHU216WMR968SP,2013-04-17 10:57:00,
2013-04-17 07:02:00,53.6,-6.6,30.06,NE,36,5.4,15.0,8,0.00,,,0.00,WUHU216WMR968SP,2013-04-17 11:02:00,
2013-04-17 07:07:00,53.6,-6.6,30.09,North,353,8.7,14.1,8,0.00,,,0.00,WUHU216WMR968SP,2013-04-17 11:07:00,
2013-04-17 07:12:00,54.0,-6.3,30.09,ENE,60,7.6,14.1,8,0.00,,,0.00,WUHU216WMR968SP,2013-04-17 11:12:00,
2013-04-17 07:17:00,54.1,-6.3,30.09,NW,325,5.4,10.5,8,0.00,,,0.00,WUHU216WMR968SP,2013-04-17 11:17:00,
2013-04-17 07:22:00,54.3,-6.1,30.09,NNE,17,4.9,10.1,8,0.00,,,0.00,WUHU216WMR968SP,2013-04-17 11:22:00,
2013-04-17 07:27:00,54.5,-6.0,30.09,NNW,331,6.3,10.5,8,0.00,,,0.00,WUHU216WMR968SP,2013-04-17 11:27:00,
2013-04-17 07:32:00,53.6,-6.6,30.09,North,2,13.2,15.4,8,0.00,,,0.00,WUHU216WMR968SP,2013-04-17 11:32:00,
2013-04-17 07:37:00,53.4,-6.8,30.09,NNW,344,9.2,15.4,8,0.00,,,0.00,WUHU216WMR968SP,2013-04-17 11:37:00,
2013-04-17 07:42:00,53.6,-6.6,30.09,NW,318,10.1,15.0,8,0.00,,,0.00,WUHU216WMR968SP,2013-04-17 11:42:00,
2013-04-17 07:47:00,53.6,-6.6,30.09,North,8,9.2,15.0,8,0.00,,,0.00,WUHU216WMR968SP,2013-04-17 11:47:00,
2013-04-17 07:52:00,53.4,-6.8,30.09,NNW,333,7.6,17.4,8,0.00,,,0.00,WUHU216WMR968SP,2013-04-17 11:52:00,
2013-04-17 07:57:00,53.6,-6.6,30.09,NNW,341,9.6,17.4,8,0.00,,,0.00,WUHU216WMR968SP,2013-04-17 11:57:00,
2013-04-17 08:02:00,53.4,-6.8,30.09,North,1,6.3,15.0,8,0.00,,,0.00,WUHU216WMR968SP,2013-04-17 12:02:00,
2013-04-17 08:07:00,53.6,-6.6,30.09,NNW,338,7.6,16.3,8,0.00,,,0.00,WUHU216WMR968SP,2013-04-17 12:07:00,
2013-04-17 08:12:00,53.4,-6.8,30.09,NNW,328,8.3,16.3,8,0.00,,,0.00,WUHU216WMR968SP,2013-04-17 12:12:00,
2013-04-17 08:17:00,53.6,-6.6,30.09,NW,324,9.6,15.4,8,0.00,,,0.00,WUHU216WMR968SP,2013-04-17 12:17:00,
2013-04-17 08:22:00,53.6,-6.6,30.09,North,353,10.1,15.4,8,0.00,,,0.00,WUHU216WMR968SP,2013-04-17 12:22:00,
2013-04-17 08:27:00,53.6,-6.6,30.09,North,357,11.0,15.0,8,0.00,,,0.00,WUHU216WMR968SP,2013-04-17 12:27:00,
2013-04-17 08:32:00,54.1,-6.3,30.09,North,353,9.6,15.0,8,0.00,,,0.00,WUHU216WMR968SP,2013-04-17 12:32:00,
2013-04-17 08:37:00,54.3,-6.1,30.12,North,357,9.2,15.4,8,0.00,,,0.00,WUHU216WMR968SP,2013-04-17 12:37:00,
2013-04-17 08:42:00,54.9,-5.7,30.12,North,353,8.1,15.4,8,0.00,,,0.00,WUHU216WMR968SP,2013-04-17 12:42:00,
2013-04-17 08:47:00,56.3,-7.3,30.12,North,357,5.4,14.5,7,0.00,,,0.00,WUHU216WMR968SP,2013-04-17 12:47:00,
2013-04-17 08:52:00,55.4,-8.0,30.12,North,353,7.2,14.5,7,0.00,,,0.00,WUHU216WMR968SP,2013-04-17 12:52:00,
2013-04-17 08:57:00,56.1,-7.5,30.12,NNW,327,9.2,13.2,7,0.00,,,0.00,WUHU216WMR968SP,2013-04-17 12:57:00,
2013-04-17 09:02:00,56.8,-6.9,30.12,North,357,6.3,13.2,7,0.00,,,0.00,WUHU216WMR968SP,2013-04-17 13:02:00,
2013-04-17 09:07:00,56.7,-7.0,30.12,NNW,330,5.4,12.3,7,0.00,,,0.00,WUHU216WMR968SP,2013-04-17 13:07:00,
2013-04-17 09:12:00,56.8,-6.9,30.12,North,357,9.2,13.2,7,0.00,,,0.00,WUHU216WMR968SP,2013-04-17 13:12:00,
2013-04-17 09:17:00,56.7,-7.0,30.12,NNW,344,7.6,13.2,7,0.00,,,0.00,WUHU216WMR968SP,2013-04-17 13:17:00,
2013-04-17 09:22:00,56.8,-6.9,30.12,NNW,331,10.1,13.2,7,0.00,,,0.00,WUHU216WMR968SP,2013-04-17 13:22:00,
2013-04-17 09:27:00,56.3,-7.3,30.12,North,2,8.7,15.4,7,0.00,,,0.00,WUHU216WMR968SP,2013-04-17 13:27:00,
2013-04-17 09:32:00,56.7,-7.0,30.12,North,1,13.2,16.3,7,0.00,,,0.00,WUHU216WMR968SP,2013-04-17 13:32:00,
2013-04-17 09:37:00,56.7,-7.0,30.09,NNW,341,9.2,16.3,7,0.00,,,0.00,WUHU216WMR968SP,2013-04-17 13:37:00,
2013-04-17 09:42:00,57.2,-6.6,30.09,North,353,8.7,15.0,7,0.00,,,0.00,WUHU216WMR968SP,2013-04-17 13:42:00,
2013-04-17 09:47:00,57.4,-6.5,30.09,NE,51,10.5,17.4,7,0.00,,,0.00,WUHU216WMR968SP,2013-04-17 13:47:00,
2013-04-17 09:52:00,57.6,-6.4,30.12,NNW,335,9.2,17.4,7,0.00,,,0.00,WUHU216WMR968SP,2013-04-17 13:52:00,
2013-04-17 09:57:00,57.9,-6.1,30.12,North,2,9.6,15.0,7,0.00,,,0.00,WUHU216WMR968SP,2013-04-17 13:57:00,
2013-04-17 10:02:00,58.5,-5.7,30.12,North,353,8.3,12.3,7,0.00,,,0.00,WUHU216WMR968SP,2013-04-17 14:02:00,
2013-04-17 10:07:00,58.1,-6.0,30.12,NNW,345,8.1,11.0,7,0.00,,,0.00,WUHU216WMR968SP,2013-04-17 14:07:00,
2013-04-17 10:12:00,58.5,-5.7,30.12,NW,318,8.1,12.3,7,0.00,,,0.00,WUHU216WMR968SP,2013-04-17 14:12:00,
2013-04-17 10:17:00,58.6,-5.6,30.12,SSW,204,9.6,15.0,7,0.00,,,0.00,WUHU216WMR968SP,2013-04-17 14:17:00,
2013-04-17 10:22:00,58.6,-5.6,30.12,North,10,7.2,15.0,7,0.00,,,0.00,WUHU216WMR968SP,2013-04-17 14:22:00,
2013-04-17 10:27:00,59.2,-5.2,30.12,NNW,331,4.5,10.5,7,0.00,,,0.00,WUHU216WMR968SP,2013-04-17 14:27:00,
2013-04-17 10:32:00,59.9,-4.7,30.12,WNW,301,4.0,8.7,7,0.00,,,0.00,WUHU216WMR968SP,2013-04-17 14:32:00,
2013-04-17 10:37:00,59.2,-5.2,30.12,West,267,8.1,10.1,7,0.00,,,0.00,WUHU216WMR968SP,2013-04-17 14:37:00,
2013-04-17 10:42:00,59.4,-5.0,30.12,NNW,331,5.8,10.5,7,0.00,,,0.00,WUHU216WMR968SP,2013-04-17 14:42:00,
2013-04-17 10:47:00,59.7,-4.8,30.12,North,353,7.2,10.5,7,0.00,,,0.00,WUHU216WMR968SP,2013-04-17 14:47:00,
2013-04-17 10:52:00,59.7,-4.8,30.12,North,353,6.3,9.2,7,0.00,,,0.00,WUHU216WMR968SP,2013-04-17 14:52:00,
2013-04-17 10:57:00,60.4,-4.3,30.12,NNW,327,5.4,10.1,7,0.00,,,0.00,WUHU216WMR968SP,2013-04-17 14:57:00,
2013-04-17 11:02:00,60.8,-7.0,30.12,NW,318,4.5,10.1,6,0.00,,,0.00,WUHU216WMR968SP,2013-04-17 15:02:00,
2013-04-17 11:07:00,61.0,-6.9,30.12,NW,321,8.3,10.5,6,0.00,,,0.00,WUHU216WMR968SP,2013-04-17 15:07:00,
2013-04-17 11:12:00,60.4,-4.3,30.12,NNW,339,8.7,12.3,7,0.00,,,0.00,WUHU216WMR968SP,2013-04-17 15:12:00,
2013-04-17 11:17:00,61.3,-6.6,30.12,West,263,4.0,12.8,6,0.00,,,0.00,WUHU216WMR968SP,2013-04-17 15:17:00,
2013-04-17 11:22:00,63.9,-4.8,30.12,WNW,301,4.9,12.8,6,0.00,,,0.00,WUHU216WMR968SP,2013-04-17 15:22:00,
2013-04-17 11:27:00,62.1,-6.1,30.12,NNW,345,5.4,8.7,6,0.00,,,0.00,WUHU216WMR968SP,2013-04-17 15:27:00,
2013-04-17 11:32:00,60.1,-4.5,30.12,North,0,4.9,8.7,7,0.00,,,0.00,WUHU216WMR968SP,2013-04-17 15:32:00,
2013-04-17 11:37:00,59.7,-4.8,30.12,North,357,7.6,13.2,7,0.00,,,0.00,WUHU216WMR968SP,2013-04-17 15:37:00,
2013-04-17 11:42:00,59.2,-5.2,30.12,NNW,329,7.6,13.2,7,0.00,,,0.00,WUHU216WMR968SP,2013-04-17 15:42:00,
2013-04-17 11:47:00,59.5,-5.0,30.12,WSW,256,0.0,10.1,7,0.00,,,0.00,WUHU216WMR968SP,2013-04-17 15:47:00,
2013-04-17 11:52:00,59.9,-4.7,30.12,NNW,345,0.0,8.3,7,0.00,,,0.00,WUHU216WMR968SP,2013-04-17 15:52:00,
2013-04-17 11:57:00,59.9,-4.7,30.12,NNW,341,3.1,11.0,7,0.00,,,0.00,WUHU216WMR968SP,2013-04-17 15:57:00,
2013-04-17 12:02:00,59.7,-4.8,30.12,North,7,6.7,13.2,7,0.00,,,0.00,WUHU216WMR968SP,2013-04-17 16:02:00,
2013-04-17 12:07:00,60.4,-4.3,30.12,North,6,5.8,13.2,7,0.00,,,0.00,WUHU216WMR968SP,2013-04-17 16:07:00,
2013-04-17 12:12:00,60.4,-4.3,30.12,North,1,5.4,8.7,7,0.00,,,0.00,WUHU216WMR968SP,2013-04-17 16:12:00,
2013-04-17 12:17:00,60.4,-4.3,30.12,NNE,14,2.2,8.3,7,0.00,,,0.00,WUHU216WMR968SP,2013-04-17 16:17:00,
2013-04-17 12:22:00,61.5,-6.5,30.12,North,1,5.4,11.0,6,0.00,,,0.00,WUHU216WMR968SP,2013-04-17 16:22:00,
2013-04-17 12:27:00,61.0,-6.9,30.12,NW,310,5.8,11.0,6,0.00,,,0.00,WUHU216WMR968SP,2013-04-17 16:27:00,
2013-04-17 12:32:00,61.3,-6.6,30.12,North,353,3.6,11.4,6,0.00,,,0.00,WUHU216WMR968SP,2013-04-17 16:32:00,
2013-04-17 12:37:00,62.1,-6.1,30.12,NNW,328,5.8,12.3,6,0.00,,,0.00,WUHU216WMR968SP,2013-04-17 16:37:00,
2013-04-17 12:42:00,61.7,-6.3,30.12,North,353,5.4,15.0,6,0.00,,,0.00,WUHU216WMR968SP,2013-04-17 16:42:00,
2013-04-17 12:47:00,61.3,-6.6,30.12,North,353,7.2,15.0,6,0.00,,,0.00,WUHU216WMR968SP,2013-04-17 16:47:00,
2013-04-17 12:52:00,62.2,-6.0,30.12,NW,304,6.3,11.9,6,0.00,,,0.00,WUHU216WMR968SP,2013-04-17 16:52:00,
2013-04-17 12:57:00,62.2,-6.0,30.12,SE,137,4.9,11.9,6,0.00,,,0.00,WUHU216WMR968SP,2013-04-17 16:57:00,
2013-04-17 13:02:00,61.2,-6.7,30.12,NNW,337,8.3,11.0,6,0.00,,,0.00,WUHU216WMR968SP,2013-04-17 17:02:00,
2013-04-17 13:07:00,60.8,-7.0,30.09,NNW,336,7.6,13.2,6,0.00,,,0.00,WUHU216WMR968SP,2013-04-17 17:07:00,
2013-04-17 13:12:00,60.6,-4.1,30.09,NNW,348,11.9,19.7,7,0.00,,,0.00,WUHU216WMR968SP,2013-04-17 17:12:00,
2013-04-17 13:17:00,61.9,-6.2,30.09,NW,304,7.2,19.7,6,0.00,,,0.00,WUHU216WMR968SP,2013-04-17 17:17:00,
2013-04-17 13:22:00,61.2,-6.7,30.12,NNE,26,9.2,17.4,6,0.00,,,0.00,WUHU216WMR968SP,2013-04-17 17:22:00,
2013-04-17 13:27:00,62.8,-5.6,30.12,North,0,5.4,17.4,6,0.00,,,0.00,WUHU216WMR968SP,2013-04-17 17:27:00,
2013-04-17 13:32:00,63.5,-5.0,30.12,North,349,4.9,12.8,6,0.00,,,0.00,WUHU216WMR968SP,2013-04-17 17:32:00,
2013-04-17 13:37:00,62.1,-6.1,30.12,North,353,6.3,9.6,6,0.00,,,0.00,WUHU216WMR968SP,2013-04-17 17:37:00,
2013-04-17 13:42:00,63.1,-5.3,30.12,NNE,19,5.8,14.1,6,0.00,,,0.00,WUHU216WMR968SP,2013-04-17 17:42:00,
2013-04-17 13:47:00,63.1,-5.3,30.12,NNW,335,8.1,15.4,6,0.00,,,0.00,WUHU216WMR968SP,2013-04-17 17:47:00,
2013-04-17 13:52:00,62.2,-6.0,30.12,North,0,8.3,17.0,6,0.00,,,0.00,WUHU216WMR968SP,2013-04-17 17:52:00,
2013-04-17 13:57:00,63.3,-5.2,30.12,NE,41,5.8,17.0,6,0.00,,,0.00,WUHU216WMR968SP,2013-04-17 17:57:00,
2013-04-17 14:02:00,63.7,-4.9,30.12,NNE,33,5.8,13.2,6,0.00,,,0.00,WUHU216WMR968SP,2013-04-17 18:02:00,
2013-04-17 14:07:00,63.9,-4.8,30.12,NNE,29,9.2,13.2,6,0.00,,,0.00,WUHU216WMR968SP,2013-04-17 18:07:00,
2013-04-17 14:12:00,63.5,-5.0,30.12,NW,312,8.1,14.5,6,0.00,,,0.00,WUHU216WMR968SP,2013-04-17 18:12:00,
2013-04-17 14:17:00,62.8,-5.6,30.12,NW,321,9.2,14.5,6,0.00,,,0.00,WUHU216WMR968SP,2013-04-17 18:17:00,
2013-04-17 14:22:00,63.0,-5.4,30.12,NNW,329,8.3,16.8,6,0.00,,,0.00,WUHU216WMR968SP,2013-04-17 18:22:00,
2013-04-17 14:27:00,63.3,-5.2,30.12,NE,53,8.7,16.8,6,0.00,,,0.00,WUHU216WMR968SP,2013-04-17 18:27:00,
2013-04-17 14:32:00,63.1,-5.3,30.12,NW,321,4.5,13.2,6,0.00,,,0.00,WUHU216WMR968SP,2013-04-17 18:32:00,
2013-04-17 14:37:00,63.9,-4.8,30.12,NNW,342,7.6,13.2,6,0.00,,,0.00,WUHU216WMR968SP,2013-04-17 18:37:00,
2013-04-17 14:42:00,64.6,-7.6,30.12,North,357,8.3,11.0,5,0.00,,,0.00,WUHU216WMR968SP,2013-04-17 18:42:00,
2013-04-17 14:47:00,64.8,-7.5,30.12,NE,42,5.8,10.5,5,0.00,,,0.00,WUHU216WMR968SP,2013-04-17 18:47:00,
2013-04-17 14:52:00,64.8,-7.5,30.12,East,81,6.7,10.5,5,0.00,,,0.00,WUHU216WMR968SP,2013-04-17 18:52:00,
2013-04-17 14:57:00,64.6,-7.6,30.12,West,275,4.0,10.5,5,0.00,,,0.00,WUHU216WMR968SP,2013-04-17 18:57:00,
2013-04-17 15:02:00,63.1,-5.3,30.12,SW,224,5.8,8.7,6,0.00,,,0.00,WUHU216WMR968SP,2013-04-17 19:02:00,
2013-04-17 15:07:00,62.8,-5.6,30.12,WNW,292,5.8,13.2,6,0.00,,,0.00,WUHU216WMR968SP,2013-04-17 19:07:00,
2013-04-17 15:12:00,62.6,-5.7,30.12,NNW,334,4.9,13.2,6,0.00,,,0.00,WUHU216WMR968SP,2013-04-17 19:12:00,
2013-04-17 15:17:00,62.1,-6.1,30.12,NNW,334,4.9,13.2,6,0.00,,,0.00,WUHU216WMR968SP,2013-04-17 19:17:00,
2013-04-17 15:22:00,63.0,-5.4,30.12,North,6,8.1,11.0,6,0.00,,,0.00,WUHU216WMR968SP,2013-04-17 19:22:00,
2013-04-17 15:27:00,63.5,-5.0,30.12,North,0,6.3,15.0,6,0.00,,,0.00,WUHU216WMR968SP,2013-04-17 19:27:00,
2013-04-17 15:32:00,64.2,-4.5,30.12,NNE,23,6.3,15.0,6,0.00,,,0.00,WUHU216WMR968SP,2013-04-17 19:32:00,
2013-04-17 15:37:00,63.1,-5.3,30.12,NW,306,7.2,17.4,6,0.00,,,0.00,WUHU216WMR968SP,2013-04-17 19:37:00,
2013-04-17 15:42:00,63.1,-5.3,30.12,NNW,328,6.3,17.4,6,0.00,,,0.00,WUHU216WMR968SP,2013-04-17 19:42:00,
2013-04-17 15:47:00,62.4,-5.8,30.12,WNW,290,7.2,11.4,6,0.00,,,0.00,WUHU216WMR968SP,2013-04-17 19:47:00,
2013-04-17 15:52:00,63.3,-5.2,30.12,NNW,343,8.7,13.2,6,0.00,,,0.00,WUHU216WMR968SP,2013-04-17 19:52:00,
2013-04-17 15:57:00,64.6,-7.6,30.12,NNE,20,9.2,17.0,5,0.00,,,0.00,WUHU216WMR968SP,2013-04-17 19:57:00,
2013-04-17 16:02:00,64.8,-7.5,30.12,North,357,8.3,17.0,5,0.00,,,0.00,WUHU216WMR968SP,2013-04-17 20:02:00,
2013-04-17 16:07:00,65.1,-7.2,30.12,NNW,341,2.7,15.0,5,0.00,,,0.00,WUHU216WMR968SP,2013-04-17 20:07:00,
2013-04-17 16:12:00,63.7,-4.9,30.12,North,353,6.3,15.0,6,0.00,,,0.00,WUHU216WMR968SP,2013-04-17 20:12:00,
2013-04-17 16:17:00,63.1,-5.3,30.12,NNW,336,6.3,11.0,6,0.00,,,0.00,WUHU216WMR968SP,2013-04-17 20:17:00,
2013-04-17 16:22:00,64.6,-7.6,30.15,NNW,340,4.0,10.5,5,0.00,,,0.00,WUHU216WMR968SP,2013-04-17 20:22:00,
2013-04-17 16:27:00,64.6,-7.6,30.15,North,0,5.8,13.2,5,0.00,,,0.00,WUHU216WMR968SP,2013-04-17 20:27:00,
2013-04-17 16:32:00,63.7,-4.9,30.15,North,4,10.1,13.2,6,0.00,,,0.00,WUHU216WMR968SP,2013-04-17 20:32:00,
2013-04-17 16:37:00,63.1,-5.3,30.15,WNW,289,5.8,13.2,6,0.00,,,0.00,WUHU216WMR968SP,2013-04-17 20:37:00,
2013-04-17 16:42:00,64.0,-4.7,30.15,NE,38,8.1,11.0,6,0.00,,,0.00,WUHU216WMR968SP,2013-04-17 20:42:00,
2013-04-17 16:47:00,65.1,-7.2,30.15,NNE,24,6.3,12.3,5,0.00,,,0.00,WUHU216WMR968SP,2013-04-17 20:47:00,
2013-04-17 16:52:00,65.5,-7.0,30.15,NNE,20,6.7,15.4,5,0.00,,,0.00,WUHU216WMR968SP,2013-04-17 20:52:00,
2013-04-17 16:57:00,65.1,-7.2,30.15,North,357,8.3,15.4,5,0.00,,,0.00,WUHU216WMR968SP,2013-04-17 20:57:00,
2013-04-17 17:02:00,65.3,-7.1,30.15,NNE,19,5.4,15.0,5,0.00,,,0.00,WUHU216WMR968SP,2013-04-17 21:02:00,
2013-04-17 17:07:00,65.1,-7.2,30.15,North,357,8.3,12.3,5,0.00,,,0.00,WUHU216WMR968SP,2013-04-17 21:07:00,
2013-04-17 17:12:00,64.9,-7.4,30.15,ENE,59,9.2,14.5,5,0.00,,,0.00,WUHU216WMR968SP,2013-04-17 21:12:00,
2013-04-17 17:17:00,64.9,-7.4,30.15,NNE,16,6.7,14.5,5,0.00,,,0.00,WUHU216WMR968SP,2013-04-17 21:17:00,
2013-04-17 17:22:00,65.5,-7.0,30.18,NNE,29,7.2,12.3,5,0.00,,,0.00,WUHU216WMR968SP,2013-04-17 21:22:00,
2013-04-17 17:27:00,65.5,-7.0,30.18,North,357,7.6,15.0,5,0.00,,,0.00,WUHU216WMR968SP,2013-04-17 21:27:00,
2013-04-17 17:32:00,64.8,-7.5,30.18,North,1,5.4,15.0,5,0.00,,,0.00,WUHU216WMR968SP,2013-04-17 21:32:00,
2013-04-17 17:37:00,65.3,-7.1,30.15,North,357,8.1,11.0,5,0.00,,,0.00,WUHU216WMR968SP,2013-04-17 21:37:00,
2013-04-17 17:42:00,65.7,-6.8,30.15,NNW,344,7.6,9.6,5,0.00,,,0.00,WUHU216WMR968SP,2013-04-17 21:42:00,
2013-04-17 17:47:00,66.4,-6.3,30.15,NNW,338,4.9,9.6,5,0.00,,,0.00,WUHU216WMR968SP,2013-04-17 21:47:00,
2013-04-17 17:52:00,65.8,-6.7,30.18,NNW,344,6.7,11.0,5,0.00,,,0.00,WUHU216WMR968SP,2013-04-17 21:52:00,
2013-04-17 17:57:00,65.5,-7.0,30.18,North,0,8.3,12.3,5,0.00,,,0.00,WUHU216WMR968SP,2013-04-17 21:57:00,
2013-04-17 18:02:00,65.7,-6.8,30.18,North,353,4.9,12.3,5,0.00,,,0.00,WUHU216WMR968SP,2013-04-17 22:02:00,
2013-04-17 18:07:00,65.7,-6.8,30.21,NW,314,5.8,11.0,5,0.00,,,0.00,WUHU216WMR968SP,2013-04-17 22:07:00,
2013-04-17 18:12:00,65.7,-6.8,30.21,NNE,23,7.2,11.0,5,0.00,,,0.00,WUHU216WMR968SP,2013-04-17 22:12:00,
2013-04-17 18:17:00,65.5,-7.0,30.21,North,3,7.6,12.3,5,0.00,,,0.00,WUHU216WMR968SP,2013-04-17 22:17:00,
2013-04-17 18:22:00,65.1,-7.2,30.21,NNE,16,8.1,12.3,5,0.00,,,0.00,WUHU216WMR968SP,2013-04-17 22:22:00,
2013-04-17 18:27:00,65.1,-7.2,30.21,West,278,7.2,11.4,5,0.00,,,0.00,WUHU216WMR968SP,2013-04-17 22:27:00,
2013-04-17 18:32:00,65.5,-7.0,30.21,NW,323,3.1,11.4,5,0.00,,,0.00,WUHU216WMR968SP,2013-04-17 22:32:00,
2013-04-17 18:37:00,65.1,-7.2,30.21,NNE,19,8.1,10.5,5,0.00,,,0.00,WUHU216WMR968SP,2013-04-17 22:37:00,
2013-04-17 18:42:00,63.5,-5.0,30.21,NNW,339,6.3,10.5,6,0.00,,,0.00,WUHU216WMR968SP,2013-04-17 22:42:00,
2013-04-17 18:47:00,62.2,-6.0,30.21,North,7,5.4,10.5,6,0.00,,,0.00,WUHU216WMR968SP,2013-04-17 22:47:00,
2013-04-17 18:52:00,62.1,-6.1,30.21,North,353,5.4,10.1,6,0.00,,,0.00,WUHU216WMR968SP,2013-04-17 22:52:00,
2013-04-17 18:57:00,61.2,-6.7,30.21,North,0,6.7,12.3,6,0.00,,,0.00,WUHU216WMR968SP,2013-04-17 22:57:00,
2013-04-17 19:02:00,60.4,-4.3,30.21,NNE,29,7.2,12.3,7,0.00,,,0.00,WUHU216WMR968SP,2013-04-17 23:02:00,
2013-04-17 19:07:00,60.3,-4.4,30.21,North,353,5.8,10.5,7,0.00,,,0.00,WUHU216WMR968SP,2013-04-17 23:07:00,
2013-04-17 19:12:00,61.2,-6.7,30.21,North,357,5.4,9.6,6,0.00,,,0.00,WUHU216WMR968SP,2013-04-17 23:12:00,
2013-04-17 19:17:00,60.6,-4.1,30.21,NNE,29,3.6,11.0,7,0.00,,,0.00,WUHU216WMR968SP,2013-04-17 23:17:00,
2013-04-17 19:22:00,58.5,-5.7,30.21,SE,144,2.7,11.0,7,0.00,,,0.00,WUHU216WMR968SP,2013-04-17 23:22:00,
2013-04-17 19:27:00,56.1,-7.5,30.21,ESE,123,0.0,5.8,7,0.00,,,0.00,WUHU216WMR968SP,2013-04-17 23:27:00,
2013-04-17 19:32:00,54.7,-5.8,30.21,SE,127,0.0,2.7,8,0.00,,,0.00,WUHU216WMR968SP,2013-04-17 23:32:00,
2013-04-17 19:37:00,53.8,-6.5,30.21,ESE,104,0.0,0.0,8,0.00,,,0.00,WUHU216WMR968SP,2013-04-17 23:37:00,
2013-04-17 19:42:00,53.4,-6.8,30.21,ESE,123,0.0,0.0,8,0.00,,,0.00,WUHU216WMR968SP,2013-04-17 23:42:00,
2013-04-17 19:47:00,53.2,-6.9,30.21,ESE,113,0.0,2.7,8,0.00,,,0.00,WUHU216WMR968SP,2013-04-17 23:47:00,
2013-04-17 19:52:00,52.7,-7.3,30.24,SE,134,0.0,2.7,8,0.00,,,0.00,WUHU216WMR968SP,2013-04-17 23:52:00,
2013-04-17 19:57:00,52.5,-7.5,30.24,SE,139,0.0,3.6,8,0.00,,,0.00,WUHU216WMR968SP,2013-04-17 23:57:00,
2013-04-17 20:02:00,51.8,-8.0,30.24,NE,36,0.0,3.6,8,0.00,,,0.00,WUHU216WMR968SP,2013-04-18 00:02:00,
2013-04-17 20:07:00,51.8,-8.0,30.24,NE,54,0.0,4.0,8,0.00,,,0.00,WUHU216WMR968SP,2013-04-18 00:07:00,
2013-04-17 20:12:00,52.2,-7.7,30.24,SSE,165,0.0,4.0,8,0.00,,,0.00,WUHU216WMR968SP,2013-04-18 00:12:00,
2013-04-17 20:17:00,52.0,-7.8,30.24,ESE,112,2.2,4.0,8,0.00,,,0.00,WUHU216WMR968SP,2013-04-18 00:17:00,
2013-04-17 20:22:00,50.7,-6.4,30.24,SE,141,0.0,4.0,9,0.00,,,0.00,WUHU216WMR968SP,2013-04-18 00:22:00,
2013-04-17 20:27:00,49.6,-7.2,30.24,SE,130,0.0,4.0,9,0.00,,,0.00,WUHU216WMR968SP,2013-04-18 00:27:00,
2013-04-17 20:32:00,49.5,5.1,30.24,ENE,78,3.6,4.0,16,0.00,,,0.00,WUHU216WMR968SP,2013-04-18 00:32:00,
2013-04-17 20:37:00,48.9,16.2,30.27,SE,142,4.0,6.3,27,0.00,,,0.00,WUHU216WMR968SP,2013-04-18 00:37:00,
2013-04-17 20:42:00,48.2,18.0,30.27,ESE,120,2.2,6.3,30,0.00,,,0.00,WUHU216WMR968SP,2013-04-18 00:42:00,
2013-04-17 20:47:00,48.0,18.6,30.27,East,93,2.7,5.8,31,0.00,,,0.00,WUHU216WMR968SP,2013-04-18 00:47:00,
2013-04-17 20:52:00,48.0,20.0,30.27,SSE,155,0.0,5.4,33,0.00,,,0.00,WUHU216WMR968SP,2013-04-18 00:52:00,
2013-04-17 20:57:00,48.0,22.7,30.27,ESE,121,2.7,5.4,37,0.00,,,0.00,WUHU216WMR968SP,2013-04-18 00:57:00,
2013-04-17 21:02:00,47.8,22.6,30.27,SSE,155,0.0,4.0,37,0.00,,,0.00,WUHU216WMR968SP,2013-04-18 01:02:00,
2013-04-17 21:07:00,47.3,22.1,30.27,SSE,155,0.0,3.1,37,0.00,,,0.00,WUHU216WMR968SP,2013-04-18 01:07:00,
2013-04-17 21:12:00,47.3,22.8,30.27,SE,136,0.0,0.0,38,0.00,,,0.00,WUHU216WMR968SP,2013-04-18 01:12:00,
2013-04-17 21:17:00,47.3,22.1,30.27,SSE,155,0.0,0.0,37,0.00,,,0.00,WUHU216WMR968SP,2013-04-18 01:17:00,
2013-04-17 21:22:00,46.9,21.8,30.27,SSE,155,0.0,0.0,37,0.00,,,0.00,WUHU216WMR968SP,2013-04-18 01:22:00,
2013-04-17 21:27:00,46.9,22.4,30.27,SSE,155,0.0,0.0,38,0.00,,,0.00,WUHU216WMR968SP,2013-04-18 01:27:00,